Atwater, CA

12:50 PM PST on December 12, 2017 (GMT -0800)
Castle

Weather History for KMER - November, 2013

Change the Weather History Date:

Thursday, November 7, 2013

  Actual Average (KMCE) Record (KMCE)
Temperature  
Mean Temperature 60 °F -  
Max Temperature 77 °F 70 °F 82 °F (2012)
Min Temperature 42 °F 43 °F 33 °F (2017)
Degree Days  
Heating Degree Days 6    
Growing Degree Days 10 (Base 50)    
Moisture  
Dew Point 37 °F    
Average Humidity 62    
Maximum Humidity 87    
Minimum Humidity 19    
Precipitation  
Precipitation 0.00 in - - ()
Sea Level Pressure  
Sea Level Pressure 30.12 in    
Wind  
Wind Speed 1 mph (SE)    
Max Wind Speed 6 mph    
Max Gust Speed -    
Visibility 8 miles    
Events      
Averages and records for this station are not official NWS values.
T = Trace of Precipitation, MM = Missing Value Source: NWS Daily Summary

Daily Weather History Graph

Daily Weather History Graph

Search for Another Location

Airport or City:

Trip Planner

Search our weather history database for the weather conditions in past years. The results will help you decide how hot, cold, wet, or windy it might be!

Date:

Astronomy

Nov. 07, 2013 Rise Set
Actual Time 6:33 AM PST 4:57 PM PST
Civil Twilight 6:06 AM PST 5:25 PM PST
Nautical Twilight 5:35 AM PST 5:56 PM PST
Astronomical Twilight 5:04 AM PST 6:27 PM PST
Moon 10:45 AM PST (11/7) 9:16 PM PST (11/7)
Length of Visible Light 11h 19m
Length of Day
10h 24m
Waxing Crescent, 24% of the Moon is Illuminated
Nov 7
Waxing Crescent
Nov 9
First Quarter
Nov 17
Full
Nov 25
Last Quarter
Dec 2
New

Hourly Weather History & Observations

Time (PST) Temp. Windchill Dew Point Humidity Pressure Visibility Wind Dir Wind Speed Gust Speed Precip Events Conditions
12:15 AM 48.2 °F - 37.4 °F 66% 30.18 in 10.0 mi Calm Calm - N/A   Clear
12:35 AM 46.4 °F - 41.0 °F 81% 30.17 in 10.0 mi Calm Calm - N/A   Clear
12:55 AM 48.2 °F - 42.8 °F 82% 30.18 in 10.0 mi Calm Calm - N/A   Clear
1:15 AM 46.4 °F - 42.8 °F 87% 30.17 in 9.0 mi Calm Calm - N/A   Clear
1:35 AM 46.4 °F - 39.2 °F 76% 30.17 in 7.0 mi Calm Calm - N/A   Clear
1:55 AM 46.4 °F 45.2 °F 39.2 °F 76% 30.16 in 8.0 mi SSE 3.5 mph - N/A   Clear
2:15 AM 46.4 °F - 37.4 °F 71% 30.17 in 8.0 mi Calm Calm - N/A   Clear
2:35 AM 46.4 °F - 39.2 °F 76% 30.17 in 10.0 mi Calm Calm - N/A   Clear
2:55 AM 46.4 °F 45.2 °F 39.2 °F 76% 30.16 in 5.0 mi SSE 3.5 mph - N/A   Clear
3:15 AM 46.4 °F 45.2 °F 39.2 °F 76% 30.15 in 8.0 mi SE 3.5 mph - N/A   Clear
3:35 AM 46.4 °F 44.3 °F 37.4 °F 71% 30.15 in 8.0 mi SE 4.6 mph - N/A   Clear
3:55 AM 44.6 °F - 35.6 °F 71% 30.15 in 9.0 mi Calm Calm - N/A   Clear
4:15 AM 46.4 °F - 33.8 °F 62% 30.15 in 8.0 mi Calm Calm - N/A   Clear
4:35 AM 46.4 °F 45.2 °F 33.8 °F 62% 30.15 in 8.0 mi SE 3.5 mph - N/A   Clear
4:55 AM 44.6 °F 43.1 °F 35.6 °F 71% 30.15 in 10.0 mi SE 3.5 mph - N/A   Clear
5:15 AM 44.6 °F - 35.6 °F 71% 30.15 in 10.0 mi Calm Calm - N/A   Clear
5:35 AM 44.6 °F 43.1 °F 35.6 °F 71% 30.15 in 10.0 mi ESE 3.5 mph - N/A   Clear
5:55 AM 44.6 °F 43.1 °F 33.8 °F 66% 30.15 in 8.0 mi SE 3.5 mph - N/A   Clear
6:45 AM 42.8 °F - 35.6 °F 76% 30.15 in 10.0 mi Calm Calm - N/A   Clear
7:45 AM 48.2 °F - 35.6 °F 62% 30.17 in 10.0 mi Calm Calm - N/A   Overcast
8:45 AM 57.2 °F - 32.0 °F 38% 30.17 in 10.0 mi Calm Calm - N/A   Overcast
9:45 AM 62.6 °F - 32.0 °F 32% 30.18 in 10.0 mi Calm Calm - N/A   Overcast
10:45 AM 69.8 °F - 32.0 °F 25% 30.16 in 7.0 mi Calm Calm - N/A   Overcast
11:45 AM 71.6 °F - 32.0 °F 23% 30.15 in 7.0 mi Calm Calm - N/A   Mostly Cloudy
12:45 PM 71.6 °F - 32.0 °F 23% 30.11 in 7.0 mi Calm Calm - N/A   Mostly Cloudy
1:50 PM 75.2 °F - 33.8 °F 22% 30.10 in 7.0 mi Calm Calm - N/A   Scattered Clouds
2:45 PM 77.0 °F - 32.0 °F 19% 30.08 in 7.0 mi NNW 5.8 mph - N/A   Scattered Clouds
3:45 PM 75.2 °F - 32.0 °F 21% 30.07 in 7.0 mi Calm Calm - N/A   Scattered Clouds
5:45 PM 60.8 °F - 33.8 °F 36% 30.06 in 7.0 mi Calm Calm - N/A   Scattered Clouds
6:45 PM 53.6 °F - 39.2 °F 58% 30.07 in 7.0 mi Calm Calm - N/A   Clear
7:45 PM 48.2 °F - 37.4 °F 66% 30.07 in 7.0 mi Calm Calm - N/A   Clear
8:15 PM 48.2 °F - 37.4 °F 66% 30.07 in 8.0 mi Calm Calm - N/A   Clear
8:35 PM 51.8 °F - 39.2 °F 62% 30.07 in 7.0 mi North - - N/A   Clear
8:55 PM 53.6 °F - 39.2 °F 58% 30.08 in 8.0 mi North - - N/A   Clear
9:15 PM 51.8 °F - 39.2 °F 62% 30.08 in 8.0 mi North - - N/A   Clear
9:35 PM 48.2 °F - 39.2 °F 71% 30.08 in 7.0 mi North - - N/A   Clear
9:55 PM 48.2 °F - 39.2 °F 71% 30.08 in 7.0 mi North - - N/A   Clear
10:15 PM 48.2 °F - 41.0 °F 76% 30.08 in 7.0 mi Calm Calm - N/A   Clear
10:35 PM 48.2 °F - 37.4 °F 66% 30.08 in 7.0 mi Calm Calm - N/A   Clear
10:55 PM 46.4 °F - 39.2 °F 76% 30.07 in 7.0 mi Calm Calm - N/A   Clear
11:15 PM 44.6 °F - 39.2 °F 81% 30.07 in 7.0 mi Calm Calm - N/A   Clear
11:35 PM 44.6 °F - 39.2 °F 81% 30.07 in 6.0 mi Calm Calm - N/A   Clear
11:55 PM 44.6 °F - 41.0 °F 87% 30.07 in 6.0 mi Calm Calm - N/A   Clear